WESTFORD NEEDLES, 3257

Orbit data source: Space-Track

WESTFORD NEEDLES, 3257 is space debris in LEO originally from a launch on Thu, 09 May 1963 UTC launched from the Air Force Western Test Range (AFWTR). Debris objects in space refer to the collection of defunct objects orbiting the Earth. Examples of debris include non-operational satellites, rocket bodies, and fragments generated from explosions, collisions, or faulty payload assembly.

Loading next visibility...
Identifier
3257, 1963-014BX
Orbit
LEO
Country
Flag of USUS
Related business
Manufacturer
Unknown
Mission
Spacecraft
Bus & Motor
Unknown
Mass
Unknown
Launch date (UTC)
1963-05-09 (63 years ago)
Launch vehicle
Unknown
Launch site
Air Force Western Test Range (AFWTR)
Object type
Payload
Rocket body
Debris
Shape & HBR
Unknown shape, 1.1 m
Radar Cross Section
Medium (>0.1 m² and <1 m²)

Expand to show TLE details & history
Last TLE update: 4 days ago

TLE from 4 days ago
0 WESTFORD NEEDLES
1  3257U 63014BX  26033.29546303  .00000684  00000-0  30039+0 0  9999
2  3257  87.1275 160.7859 0352056 296.2864  60.2224  8.65354069 48265
Epoch: 2026-02-02T07:05Z
TLE epoch observation values (Epoch: 2026-02-02T07:05:28.005Z)
Latitude
-0.00006°
Longitude
-78.07359°
Altitude
3,480.069 km
Speed
6.412 km/s
True Right ascension
10h 43m 08s
True Declination
0° 00' 00"
Sunlit
Object was in full shadow at epoch
Visualization orbit readout
Latitude
Unknown
Longitude
Unknown
Altitude
Unknown
Speed
Unknown
Apparent Right ascension
Unknown
Apparent Declination
Unknown
Sunlit
N/A
Visualization observer readout
Local Sidereal Time
21:51:33
Azimuth
Unknown
Elevation
Unknown
Doppler factor
Unknown
Orbital elements
Apogee altitude
3,994.077 km
Perigee altitude
3,288.594 km
Semi-major axis
10,019.473 km
Eccentricity
0.03521
Inclination
87.1275°
RAAN
160.7859°
Arg. of periapsis
296.2864°
True anomaly
63.79981°
Mean anomaly
60.2224°
Eccentric anomaly
62.00348°
Mean motion
2.16409 °/min
Orbital period
166.35 mins
BSTAR
0.30039
Loading maneuver chart data...
Computing Atmospheric mass density...

Documentation

Showing up to 5 results
|